Del Rio Laughlin AFB, TX

2:00 PM CST on November 20, 2017 (GMT -0600)
Laughlin Air Force Base

Weather History for KDLF - March, 2013

Change the Weather History Date:

Monday, March 11, 2013

  Actual Average Record
Temperature  
Mean Temperature 54 °F -  
Max Temperature 73 °F 75 °F 84 °F (2014)
Min Temperature 36 °F 53 °F 36 °F (2013)
Degree Days  
Heating Degree Days 10    
Growing Degree Days 4 (Base 50)    
Moisture  
Dew Point 20 °F    
Average Humidity 27    
Maximum Humidity 58    
Minimum Humidity 11    
Precipitation  
Precipitation 0.00 in - - ()
Sea Level Pressure  
Sea Level Pressure 30.10 in    
Wind  
Wind Speed 5 mph (NW)    
Max Wind Speed 13 mph    
Max Gust Speed 20 mph    
Visibility 10 miles    
Events      
Averages and records for this station are not official NWS values.
T = Trace of Precipitation, MM = Missing Value Source: NWS Daily Summary

Daily Weather History Graph

Daily Weather History Graph

Search for Another Location

Airport or City:

Trip Planner

Search our weather history database for the weather conditions in past years. The results will help you decide how hot, cold, wet, or windy it might be!

Date:

Astronomy

Mar. 11, 2013 Rise Set
Actual Time 7:57 AM CDT 7:49 PM CDT
Civil Twilight 7:33 AM CDT 8:13 PM CDT
Nautical Twilight 7:05 AM CDT 8:40 PM CDT
Astronomical Twilight 6:38 AM CDT 9:08 PM CDT
Moon 7:34 AM CDT (3/11) 7:58 PM CDT (3/11)
Length of Visible Light 12h 39m
Length of Day
11h 52m
Waning Crescent, 0% of the Moon is Illuminated
Mar 11
Waning Crescent
Mar 11
New
Mar 19
First Quarter
Mar 27
Full
Apr 2
Last Quarter

Hourly Weather History & Observations

Time (CDT) Temp. Windchill Dew Point Humidity Pressure Visibility Wind Dir Wind Speed Gust Speed Precip Events Conditions
12:58 AM 48.7 °F - 19.2 °F 31% 30.16 in 10.0 mi North 5.8 mph - N/A   Clear
1:58 AM 46.2 °F - 20.3 °F 36% 30.16 in 10.0 mi NW 2.3 mph - N/A   Clear
2:58 AM 45.3 °F - 17.6 °F 33% 30.16 in 10.0 mi Variable 1.2 mph - N/A   Clear
3:58 AM 41.7 °F 36.1 °F 20.8 °F 43% 30.14 in 10.0 mi WNW 9.2 mph - N/A   Clear
4:58 AM 40.6 °F 35.4 °F 19.9 °F 44% 30.12 in 10.0 mi WNW 8.1 mph - N/A   Clear
5:58 AM 39.2 °F 35.9 °F 20.5 °F 47% 30.12 in 10.0 mi WNW 4.6 mph - N/A   Clear
6:58 AM 38.5 °F 34.1 °F 21.9 °F 51% 30.14 in 10.0 mi NW 5.8 mph - N/A   Clear
7:58 AM 36.3 °F 30.1 °F 22.6 °F 58% 30.16 in 10.0 mi North 8.1 mph - N/A   Clear
8:58 AM 39.7 °F 35.6 °F 20.3 °F 46% 30.18 in 10.0 mi North 5.8 mph - N/A   Clear
9:58 AM 53.4 °F - 18.5 °F 25% 30.18 in 9.0 mi NNW 3.5 mph - N/A   Clear
10:58 AM 58.8 °F - 19.2 °F 22% 30.18 in 9.0 mi Variable 2.3 mph - N/A   Clear
11:58 AM 63.1 °F - 19.2 °F 18% 30.17 in 10.0 mi West 2.3 mph - N/A   Clear
12:58 PM 65.8 °F - 18.5 °F 16% 30.14 in 10.0 mi West 3.5 mph - N/A   Clear
1:58 PM 68.7 °F - 19.6 °F 15% 30.11 in 10.0 mi SW 9.2 mph 17.3 mph N/A   Clear
2:58 PM 71.6 °F - 21.7 °F 15% 30.06 in 10.0 mi NNW 8.1 mph - N/A   Clear
3:58 PM 72.5 °F - 21.0 °F 14% 30.04 in 10.0 mi NW 12.7 mph 19.6 mph N/A   Clear
4:58 PM 73.6 °F - 18.3 °F 12% 30.01 in 10.0 mi Variable 5.8 mph - N/A   Clear
5:58 PM 73.6 °F - 16.3 °F 11% 29.99 in 10.0 mi WNW 8.1 mph - N/A   Clear
6:58 PM 73.2 °F - 17.6 °F 12% 29.98 in 10.0 mi NW 6.9 mph - N/A   Clear
7:58 PM 70.7 °F - 17.8 °F 13% 29.99 in 10.0 mi North 1.2 mph - N/A   Clear
8:58 PM 66.4 °F - 19.6 °F 17% 30.01 in 10.0 mi SSE 5.8 mph - N/A   Clear
9:58 PM 60.4 °F - 19.9 °F 21% 30.03 in 10.0 mi SSE 5.8 mph - N/A   Clear
10:58 PM 56.7 °F - 19.9 °F 24% 30.03 in 10.0 mi SSE 4.6 mph - N/A   Clear
11:58 PM 58.3 °F - 18.7 °F 21% 30.02 in 10.0 mi South 6.9 mph - N/A   Clear